Lid_Strength_Index
25 21 21 19 19 19 22 24 22 19 22 22 21 23 21 14 13 13 13 13 12 12 11 12 12 11 12 11 10 10 12 13 14 13 13 13 14 14 14 15 14 15 14 14
26 21 21 22 19 18 18 22 22 20 19 17 16 16 17 16 16 15 15 15 14 13 12 12 13 13 14 15 13 10 13 16 15 15 15 15 14 14 14 15 17 15 14 14
29 24 25 25 21 19 21 23 23 24 19 18 20 17 22 18 19 18 18 17 16 16 16 14 17 14 18 17 14 15 15 15 15 16 16 16 15 16 15 15 15 16 15 14
30 30 31 20 20 19 19 19 20 21 20 17 23 16 15 17 19 19 18 19 18 18 18 18 18 18 18 18 18 18 17 17 16 16 17 17 17 16 16 15 15 15 14 14
29 33 24 21 20 20 21 21 18 19 18 17 16 16 16 17 20 22 22 20 20 22 22 23 22 20 21 20 22 21 18 18 17 16 16 17 18 17 16 15 15 14 13 14
35 30 30 22 20 18 18 24 19 18 17 17 17 21 20 22 21 23 23 24 24 24 25 23 21 20 18 20 20 20 18 16 17 17 17 18 17 17 16 15 14 12 12 13
31 32 26 20 19 17 24 21 18 17 17 18 19 19 20 21 21 22 24 23 25 26 25 25 24 20 19 20 20 19 17 17 16 16 16 15 15 15 15 15 14 14 14 13
33 33 27 19 19 20 19 18 17 18 18 18 17 17 19 20 21 21 23 24 24 22 22 24 24 19 20 19 19 19 18 18 18 18 16 14 15 15 15 15 15 14 14 13
24 22 20 17 21 22 20 19 18 18 18 18 19 20 20 21 20 20 20 19 20 21 21 21 20 20 20 20 20 19 20 21 21 19 18 16 16 15 16 15 15 15 14 13
23 21 20 20 22 20 20 20 18 18 19 20 21 21 20 20 20 21 21 21 21 22 23 22 21 21 21 21 20 22 23 22 21 20 20 19 17 16 16 17 17 16 16 14
22 20 20 20 20 19 19 19 20 21 21 21 21 21 21 22 22 22 22 22 23 24 23 23 22 23 23 22 22 24 24 22 22 21 21 21 20 19 17 16 16 17 16 15
20 19 20 18 17 18 20 21 21 22 23 21 21 22 22 23 23 23 24 24 25 25 25 25 25 25 24 25 25 26 25 23 22 22 22 22 22 22 18 16 15 14 13 13
19 19 22 20 18 19 20 21 21 22 22 23 23 23 24 24 26 26 27 28 28 28 27 27 27 27 27 27 29 28 27 25 23 23 23 23 23 23 24 21 17 16 15 14
21 21 22 22 22 21 21 22 23 23 24 24 25 29 28 29 31 32 31 30 31 31 31 30 30 29 27 28 29 28 28 26 25 23 24 24 24 24 23 24 24 23 19 17
20 23 21 21 22 24 24 25 28 27 26 28 29 30 31 33 34 31 32 33 33 34 32 32 31 29 28 30 27 26 25 24 24 23 24 24 24 24 24 24 24 24 23 20
27 28 26 24 24 27 28 29 28 27 29 32 31 32 32 35 35 36 35 36 35 31 31 32 31 28 29 31 29 28 26 25 23 23 23 24 24 24 25 25 25 25 25 24
27 29 32 32 27 29 28 28 26 27 30 31 30 34 37 39 41 37 34 37 36 34 32 32 29 29 30 31 32 27 25 25 25 25 25 24 24 24 24 25 25 25 24 22
27 23 27 23 26 28 32 30 31 32 33 32 36 39 40 40 33 33 34 38 39 34 32 30 30 30 32 33 33 28 25 25 26 27 25 24 24 23 23 24 24 24 23 22
31 27 29 28 27 27 29 31 33 34 37 36 38 36 36 37 37 36 40 41 38 36 28 34 27 28 34 32 27 29 28 28 27 27 27 25 25 24 24 24 23 23 22 22
33 33 32 35 34 32 34 39 36 38 40 39 43 43 40 36 38 38 43 36 32 29 33 34 34 33 32 32 27 32 31 30 28 26 26 26 25 25 24 24 24 23 21 21
32 33 33 33 34 38 36 36 36 38 38 41 38 37 36 36 44 44 43 38 31 32 31 32 36 32 33 31 32 33 32 31 31 28 27 26 25 24 24 24 24 23 22 21
34 34 33 34 32 35 39 39 39 41 42 45 45 44 45 38 42 43 37 33 29 31 35 35 34 32 30 28 30 31 32 32 31 29 27 27 25 23 23 23 22 22 21 21
36 36 34 33 34 35 42 42 40 39 38 39 38 38 38 34 37 41 33 33 33 34 35 34 31 28 26 26 28 30 31 31 30 30 28 27 25 24 23 22 21 21 21 20
38 37 36 39 39 39 36 36 38 38 39 41 39 38 39 38 36 35 32 31 31 30 31 30 28 23 23 25 27 30 31 30 29 29 29 28 27 25 23 22 21 21 20 19
36 38 39 39 38 34 37 39 42 43 44 39 39 38 38 36 34 36 39 35 31 29 29 28 24 23 25 26 29 29 29 30 29 29 29 29 28 26 24 22 21 20 20 19
39 37 37 36 35 36 36 41 37 39 42 38 36 36 37 38 35 34 33 32 31 30 30 29 29 29 29 29 29 29 29 28 28 28 28 29 29 27 25 23 22 21 20 19
40 37 38 37 38 37 37 37 39 35 38 40 36 36 36 38 37 33 32 31 31 30 30 29 29 29 29 29 29 29 28 28 27 27 27 28 29 28 26 24 22 22 21 19